This demonstration page uses our WeatherBlox Daily Observations layout. Learn more.

39.29038, -76.61219

Hourly Observations for October 17, 2015

Temp ( °F °C ) Dew Point ( °F °C ) Humidity (%) Winds ( mph kmh ) Pressure ( in mb ) Visibility ( mi km ) Precip ( " mm )
12:54 am 00:54 undefined 52 11.1 35 1.7 53 53 undefined N/A 30.11 1020 N/A 0 0
1:54 am 01:54 undefined 51 10.6 36 2.2 56 56 undefined N/A 30.11 1020 N/A 0 0
2:54 am 02:54 undefined 50 10 35 1.7 57 57 undefined N/A 30.12 1020 N/A 0 0
3:54 am 03:54 undefined 49 9.4 35 1.7 59 59 undefined N/A 30.11 1020 N/A 0 0
4:54 am 04:54 undefined 49 9.4 34 1.1 56 56 undefined N/A 30.12 1020 N/A 0 0
5:54 am 05:54 undefined 50 10 35 1.7 57 57 undefined N/A 30.12 1020 N/A 0 0
6:54 am 06:54 undefined 48 8.9 35 1.7 61 61 undefined N/A 30.15 1021 N/A 0 0
7:54 am 07:54 undefined 48 8.9 36 2.2 63 63 undefined N/A 30.16 1021 N/A 0 0
8:54 am 08:54 undefined 51 10.6 36 2.2 56 56 undefined N/A 30.18 1022 N/A 0 0
9:54 am 09:54 undefined 53 11.7 36 2.2 52 52 undefined N/A 30.19 1022 N/A 0 0
10:54 am 10:54 undefined 55 12.8 35 1.7 47 47 undefined N/A 30.18 1022 N/A 0 0
11:54 am 11:54 undefined 54 12.2 32 0 43 43 undefined N/A 30.18 1022 N/A 0 0
12:54 pm 12:54 undefined 53 11.7 31 -0.6 43 43 undefined N/A 30.18 1022 N/A 0 0
1:54 pm 13:54 undefined 55 12.8 29 -1.7 37 37 undefined N/A 30.16 1022 N/A 0 0
2:54 pm 14:54 undefined 54 12.2 30 -1.1 40 40 undefined N/A 30.16 1021 N/A 0 0
3:54 pm 15:54 undefined 55 12.8 25 -3.9 31 31 undefined N/A 30.17 1022 N/A 0 0
4:54 pm 16:54 undefined 54 12.2 28 -2.2 37 37 undefined N/A 30.18 1022 N/A 0 0
5:54 pm 17:54 undefined 53 11.7 23 -5 31 31 undefined N/A 30.2 1023 N/A 0 0
6:54 pm 18:54 undefined 51 10.6 26 -3.3 38 38 undefined N/A 30.22 1023 N/A 0 0
7:54 pm 19:54 undefined 51 10.6 28 -2.2 41 41 undefined N/A 30.24 1024 N/A 0 0
8:54 pm 20:54 undefined 48 8.9 30 -1.1 50 50 undefined N/A 30.26 1025 N/A 0 0
9:54 pm 21:54 undefined 47 8.3 31 -0.6 54 54 undefined N/A 30.27 1025 N/A 0 0
10:54 pm 22:54 undefined 46 7.8 31 -0.6 56 56 undefined N/A 30.28 1025 N/A 0 0
11:54 pm 23:54 undefined 45 7.2 30 -1.1 56 56 undefined N/A 30.28 1026 N/A 0 0

Powered by AerisWeather